EW2809 Weather Reports


time (UTC)temp
F
wind
direction
speed
knots
gust
knots
rain 1hr
in
rain 24hr
in
rain mn
in
humidity
%
barometer
mb
20260504130537 56 0.0 0.0 0.00 0.00 0.00 67 1014.8
20260504110516 45 0.0 0.0 0.00 0.00 0.00 81 1015.2
20260504100516 47 0.0 0.0 0.00 0.00 0.00 81 1015.2
20260504081516 46 0.0 0.0 0.00 0.00 0.00 83 1015.5
20260504081036 46 0.0 0.0 0.00 0.00 0.00 84 1015.5
20260504080516 46 0.0 0.0 0.00 0.00 0.00 84 1015.6
20260504050557 43 0.0 0.0 0.00 0.00 0.00 77 1015.8
20260504050015 43 0.0 0.0 0.00 0.00 0.00 77 1015.7
20260504045516 43 0.0 0.0 0.00 0.00 0.00 75 1015.8
20260504045015 43 0.0 0.0 0.00 0.00 0.00 75 1015.8
20260504044515 43 0.0 0.0 0.00 0.00 0.00 76 1015.8
20260504044016 43 0.0 0.0 0.00 0.00 0.00 74 1015.7
20260504043515 42 0.0 0.0 0.00 0.00 0.00 73 1015.7
20260504043036 43 0.0 0.0 0.00 0.00 0.00 73 1015.6
20260504042516 43 0.0 0.0 0.00 0.00 0.00 73 1015.7
20260504042016 43 0.0 0.0 0.00 0.00 0.00 72 1015.7
20260504041515 43 0.0 0.0 0.00 0.00 0.00 73 1015.6
20260504041015 43 0.0 0.0 0.00 0.00 0.00 73 1015.6
20260504040536 43 0.0 0.0 0.00 0.00 0.00 73 1015.6
20260504040016 43 0.0 0.0 0.00 0.00 0.00 73 1015.6
20260504035515 43 0.0 0.0 0.00 0.00 0.00 73 1015.7
20260504035035 43 0.0 0.0 0.00 0.00 0.00 73 1015.7
20260504034515 43 0.0 0.0 0.00 0.00 0.00 74 1015.7
20260504034016 43 0.0 0.0 0.00 0.00 0.00 74 1015.6
20260504033516 43 0.0 0.0 0.00 0.00 0.00 74 1015.6
20260504033015 43 0.0 0.0 0.00 0.00 0.00 75 1015.4
20260504032515 43 0.0 0.0 0.00 0.00 0.00 74 1015.4
20260504032015 43 0.0 0.0 0.00 0.00 0.00 76 1015.4
20260504031515 43 0.0 0.0 0.00 0.00 0.00 74 1015.3
20260504031015 43 0.0 0.0 0.00 0.00 0.00 74 1015.2
20260504030516 43 0.0 0.0 0.00 0.00 0.00 75 1015.3
20260504030015 44 0.0 0.0 0.00 0.00 0.00 75 1015.2
20260504025515 44 0.0 0.0 0.00 0.00 0.00 75 1015.1
20260504025015 44 0.0 0.0 0.00 0.00 0.00 73 1015.1
20260504024515 44 0.0 0.0 0.00 0.00 0.00 72 1015.1
20260504024015 44 0.0 0.0 0.00 0.00 0.00 71 1015.1
20260504023516 44 0.0 0.0 0.00 0.00 0.00 72 1015.1
20260504023015 45 0.0 0.0 0.00 0.00 0.00 68 1015.0
20260504022535 45 0.0 0.0 0.00 0.00 0.00 67 1015.0
20260504022015 45 0.0 0.0 0.00 0.00 0.00 66 1014.9
20260504021535 45 0.0 0.0 0.00 0.00 0.00 68 1015.0
20260504021015 45 0.0 0.0 0.00 0.00 0.00 70 1015.0
20260504020515 45 0.0 0.0 0.00 0.00 0.00 70 1015.0
20260504020018 46 0.0 0.0 0.00 0.00 0.00 67 1014.9
20260504015517 46 0.0 0.0 0.00 0.00 0.00 65 1014.9
20260504015017 46 0.0 0.0 0.00 0.00 0.00 64 1014.8
20260504014517 47 0.0 0.0 0.00 0.00 0.00 62 1014.8
20260504014017 47 0.0 0.0 0.00 0.00 0.00 62 1014.8
20260504013518 47 0.0 0.0 0.00 0.00 0.00 61 1014.8
20260504013017 47 0.0 0.0 0.00 0.00 0.00 62 1014.8
20260504012517 47 0.0 0.0 0.00 0.00 0.00 61 1014.7
20260504012017 48 0.0 0.0 0.00 0.00 0.00 60 1014.6
20260504011517 48 0.0 0.0 0.00 0.00 0.00 60 1014.6
20260504011017 48 0.0 0.0 0.00 0.00 0.00 59 1014.6
20260504010517 49 0.0 0.0 0.00 0.00 0.00 57 1014.6
20260504010017 49 0.0 0.0 0.00 0.00 0.00 56 1014.5
20260504005517 50 0.0 0.0 0.00 0.00 0.00 59 1014.5
20260504005017 50 0.0 0.0 0.00 0.00 0.00 57 1014.5
20260504004538 50 0.0 0.0 0.00 0.00 0.00 55 1014.4
20260504004017 50 0.0 0.0 0.00 0.00 0.00 54 1014.3
20260504003517 51 0.0 0.0 0.00 0.00 0.00 54 1014.3
20260504003018 51 0.0 0.0 0.00 0.00 0.00 53 1014.3
20260504002517 52 0.0 0.0 0.00 0.00 0.00 51 1014.2
20260504002017 52 0.0 0.0 0.00 0.00 0.00 49 1014.2
20260504001517 52 0.0 0.0 0.00 0.00 0.00 49 1014.2
20260504001017 53 0.0 0.0 0.00 0.00 0.00 49 1014.1
20260504000517 53 0.0 0.0 0.00 0.00 0.00 50 1014.1
20260504000037 53 0.0 0.0 0.00 0.00 0.00 48 1014.0
20260503235539 53 0.0 0.0 0.00 0.00 0.00 47 1014.0
20260503235017 54 0.0 0.0 0.00 0.00 0.00 48 1014.0
20260503234537 54 90 0.0 0.9 0.00 0.00 0.00 47 1013.9
20260503234017 55 0.0 0.0 0.00 0.00 0.00 45 1013.8
20260503233517 55 0.0 0.0 0.00 0.00 0.00 45 1013.8
20260503233017 55 0.0 0.0 0.00 0.00 0.00 46 1013.8
20260503232519 56 90 0.0 0.9 0.00 0.00 0.00 45 1013.7
20260503232017 56 90 0.0 0.9 0.00 0.00 0.00 44 1013.6
20260503231517 56 90 0.0 0.9 0.00 0.00 0.00 47 1013.5
20260503231017 56 90 0.0 0.9 0.00 0.00 0.00 47 1013.5
20260503230517 57 90 0.0 0.9 0.00 0.00 0.00 43 1013.6
20260503230017 57 90 0.0 0.9 0.00 0.00 0.00 46 1013.6
20260503225537 57 90 0.0 0.9 0.00 0.00 0.00 42 1013.6
20260503225038 57 90 0.0 1.7 0.00 0.00 0.00 42 1013.6
20260503224517 57 90 0.0 1.7 0.00 0.00 0.00 43 1013.6
20260503224017 58 90 0.0 1.7 0.00 0.00 0.00 44 1013.7
20260503223517 58 90 0.0 2.6 0.00 0.00 0.00 43 1013.7
20260503223017 58 90 0.0 0.9 0.00 0.00 0.00 44 1013.7
20260503222517 58 90 0.0 1.7 0.00 0.00 0.00 43 1013.7
20260503222017 58 90 0.0 0.9 0.00 0.00 0.00 43 1013.7
20260503221538 58 90 0.0 0.9 0.00 0.00 0.00 44 1013.6
20260503221017 58 90 0.9 2.6 0.00 0.00 0.00 43 1013.7
20260503220517 59 90 0.0 0.9 0.00 0.00 0.00 44 1013.7
20260503220017 59 90 0.0 0.9 0.00 0.00 0.00 43 1013.7
20260503215517 59 90 0.0 1.7 0.00 0.00 0.00 40 1013.8
20260503215037 59 90 0.0 2.6 0.00 0.00 0.00 45 1013.9
20260503214518 59 90 0.9 1.7 0.00 0.00 0.00 44 1013.8
20260503214017 59 90 0.0 1.7 0.00 0.00 0.00 43 1013.8
20260503213517 59 90 0.9 3.5 0.00 0.00 0.00 40 1013.9
20260503213017 59 90 0.0 1.7 0.00 0.00 0.00 39 1013.8
20260503212517 59 90 0.9 6.1 0.00 0.00 0.00 41 1013.7
20260503212016 59 90 0.9 4.3 0.00 0.00 0.00 37 1013.8
20260503211537 59 90 0.9 3.5 0.00 0.00 0.00 39 1013.7
20260503211037 60 90 0.9 4.3 0.00 0.00 0.00 44 1013.8
20260503210517 60 90 0.0 1.7 0.00 0.00 0.00 44 1013.8
20260503210016 60 90 0.9 2.6 0.00 0.00 0.00 38 1013.9
20260503205517 60 90 0.0 1.7 0.00 0.00 0.00 41 1014.0
20260503205017 60 90 0.9 3.5 0.00 0.00 0.00 39 1013.9
20260503204517 61 90 0.9 6.1 0.00 0.00 0.00 39 1013.9
20260503204018 61 90 0.0 1.7 0.00 0.00 0.00 39 1013.8
20260503203517 61 90 0.9 2.6 0.00 0.00 0.00 37 1013.9
20260503203037 62 90 0.9 6.1 0.00 0.00 0.00 37 1013.8
20260503202517 62 90 0.9 3.5 0.00 0.00 0.00 39 1014.0
20260503202017 63 90 0.0 1.7 0.00 0.00 0.00 37 1014.1
20260503201517 63 90 0.0 2.6 0.00 0.00 0.00 44 1014.2
20260503201017 63 90 0.9 3.5 0.00 0.00 0.00 39 1014.2
20260503200537 63 90 0.9 2.6 0.00 0.00 0.00 45 1014.3
20260503200017 63 90 0.9 2.6 0.00 0.00 0.00 38 1014.3
20260503195516 63 90 0.9 3.5 0.00 0.00 0.00 42 1014.4
20260503195037 63 90 0.9 1.7 0.00 0.00 0.00 39 1014.5
20260503194516 62 90 0.9 6.1 0.00 0.00 0.00 40 1014.5
20260503194037 62 90 0.9 4.3 0.00 0.00 0.00 38 1014.5
20260503193517 62 90 0.9 3.5 0.00 0.00 0.00 40 1014.7
20260503193017 62 90 0.9 2.6 0.00 0.00 0.00 39 1014.8
20260503192517 63 90 1.7 5.2 0.00 0.00 0.00 40 1014.8
20260503192016 63 90 0.9 3.5 0.00 0.00 0.00 46 1014.9
20260503191517 62 90 0.9 6.1 0.00 0.00 0.00 40 1015.0
20260503191038 62 90 0.9 2.6 0.00 0.00 0.00 43 1015.1
20260503190516 62 90 0.9 4.3 0.00 0.00 0.00 38 1015.1
20260503190016 63 90 0.9 1.7 0.00 0.00 0.00 43 1015.2
20260503185517 62 90 0.9 4.3 0.00 0.00 0.00 43 1015.2
20260503185036 61 90 1.7 5.2 0.00 0.00 0.00 46 1015.3
20260503184516 60 90 0.9 5.2 0.00 0.00 0.00 40 1015.1
20260503184017 61 90 0.9 2.6 0.00 0.00 0.00 40 1015.4
20260503183537 61 90 0.9 3.5 0.00 0.00 0.00 40 1015.5
20260503183017 61 90 0.9 2.6 0.00 0.00 0.00 48 1015.5
20260503182516 61 90 1.7 4.3 0.00 0.00 0.00 40 1015.6
20260503182036 62 90 0.9 4.3 0.00 0.00 0.00 42 1015.5
20260503181516 60 90 0.9 2.6 0.00 0.00 0.00 46 1015.5
20260503181016 61 90 0.9 2.6 0.00 0.00 0.00 39 1015.6
20260503180517 61 90 0.9 4.3 0.00 0.00 0.00 44 1015.5
20260503180017 60 90 0.9 4.3 0.00 0.00 0.00 43 1015.6
20260503175516 60 90 0.9 6.1 0.00 0.00 0.00 42 1015.7
20260503175016 61 90 0.9 3.5 0.00 0.00 0.00 42 1015.8
20260503174516 59 90 1.7 6.1 0.00 0.00 0.00 45 1015.9
20260503174017 59 90 0.9 5.2 0.00 0.00 0.00 45 1015.8
20260503173517 59 90 0.9 2.6 0.00 0.00 0.00 49 1015.9
20260503173017 60 90 0.9 5.2 0.00 0.00 0.00 41 1015.9
20260503172516 60 90 1.7 5.2 0.00 0.00 0.00 47 1015.9
20260503172016 60 90 0.9 3.5 0.00 0.00 0.00 46 1015.9
20260503171516 60 90 0.9 5.2 0.00 0.00 0.00 43 1016.0
20260503171016 60 90 0.9 2.6 0.00 0.00 0.00 46 1016.0
20260503170516 60 90 1.7 4.3 0.00 0.00 0.00 44 1016.1
20260503150516 54 90 0.9 4.3 0.00 0.00 0.00 51 1016.7